TimeEDT,TemperatureF,Dew PointF,Humidity,Sea Level PressureIn,VisibilityMPH,Wind Direction,Wind SpeedMPH,Gust SpeedMPH,PrecipitationIn,Events,Conditions,WindDirDegrees,DateUTC
12:15 AM,43.3,19.0,38,30.19,10.0,North,3.5,-,N/A,,Overcast,350,2013-03-30 04:15:00
12:35 AM,46.4,22.3,39,30.19,10.0,Calm,Calm,-,N/A,,Overcast,0,2013-03-30 04:35:00
12:55 AM,44.8,23.0,42,30.19,10.0,North,3.5,-,N/A,,Overcast,350,2013-03-30 04:55:00
1:15 AM,45.9,25.0,44,30.18,10.0,North,6.9,-,N/A,,Overcast,360,2013-03-30 05:15:00
1:35 AM,45.9,27.1,48,30.19,10.0,North,5.8,-,N/A,,Mostly Cloudy,350,2013-03-30 05:35:00
1:55 AM,45.1,27.0,49,30.18,10.0,North,4.6,-,N/A,,Scattered Clouds,350,2013-03-30 05:55:00
2:15 AM,44.6,27.7,52,30.18,10.0,NNW,3.5,-,N/A,,Clear,340,2013-03-30 06:15:00
2:35 AM,44.6,27.9,52,30.17,10.0,North,3.5,-,N/A,,Mostly Cloudy,10,2013-03-30 06:35:00
2:55 AM,43.7,28.4,55,30.18,10.0,North,3.5,-,N/A,,Mostly Cloudy,360,2013-03-30 06:55:00
3:15 AM,43.9,28.4,55,30.18,10.0,Calm,Calm,-,N/A,,Overcast,0,2013-03-30 07:15:00
3:35 AM,43.5,26.6,51,30.18,10.0,Calm,Calm,-,N/A,,Overcast,0,2013-03-30 07:35:00
3:55 AM,42.1,24.1,49,30.17,10.0,Calm,Calm,-,N/A,,Overcast,0,2013-03-30 07:55:00
4:15 AM,42.1,24.6,50,30.17,10.0,Calm,Calm,-,N/A,,Overcast,0,2013-03-30 08:15:00
4:35 AM,41.0,22.3,47,30.17,10.0,Calm,Calm,-,N/A,,Overcast,0,2013-03-30 08:35:00
4:55 AM,39.9,22.8,50,30.17,10.0,North,3.5,-,N/A,,Mostly Cloudy,360,2013-03-30 08:55:00
5:15 AM,40.1,27.3,60,30.17,10.0,Calm,Calm,-,N/A,,Mostly Cloudy,0,2013-03-30 09:15:00
5:35 AM,39.4,27.1,62,30.18,10.0,North,3.5,-,N/A,,Mostly Cloudy,350,2013-03-30 09:35:00
5:55 AM,38.7,24.8,58,30.19,10.0,Calm,Calm,-,N/A,,Mostly Cloudy,0,2013-03-30 09:55:00
6:15 AM,36.3,22.6,58,30.19,10.0,Calm,Calm,-,N/A,,Scattered Clouds,0,2013-03-30 10:15:00
6:35 AM,35.2,22.8,61,30.20,10.0,Calm,Calm,-,N/A,,Scattered Clouds,0,2013-03-30 10:35:00
6:55 AM,33.8,21.4,60,30.20,10.0,Calm,Calm,-,N/A,,Scattered Clouds,0,2013-03-30 10:55:00
7:15 AM,33.1,21.4,62,30.21,10.0,Calm,Calm,-,N/A,,Scattered Clouds,0,2013-03-30 11:15:00
7:35 AM,33.6,23.2,66,30.21,10.0,Calm,Calm,-,N/A,,Scattered Clouds,0,2013-03-30 11:35:00
7:55 AM,34.7,25.7,70,30.22,10.0,Calm,Calm,-,N/A,,Scattered Clouds,0,2013-03-30 11:55:00
8:15 AM,36.5,26.8,68,30.22,10.0,Calm,Calm,-,N/A,,Clear,0,2013-03-30 12:15:00
8:35 AM,42.3,33.4,71,30.22,10.0,Calm,Calm,-,N/A,,Clear,0,2013-03-30 12:35:00
8:55 AM,47.5,34.3,60,30.22,10.0,Calm,Calm,-,N/A,,Clear,0,2013-03-30 12:55:00
9:15 AM,49.1,34.5,57,30.23,10.0,Calm,Calm,-,N/A,,Clear,0,2013-03-30 13:15:00
9:35 AM,52.0,36.0,54,30.22,10.0,Calm,Calm,-,N/A,,Clear,0,2013-03-30 13:35:00
9:55 AM,53.6,37.4,54,30.22,10.0,Calm,Calm,-,N/A,,Clear,0,2013-03-30 13:55:00
10:15 AM,55.4,27.0,34,30.22,10.0,East,5.8,-,N/A,,Clear,90,2013-03-30 14:15:00
10:35 AM,57.2,26.8,31,30.22,10.0,East,6.9,-,N/A,,Clear,90,2013-03-30 14:35:00
10:55 AM,57.7,24.6,28,30.21,10.0,ENE,10.4,-,N/A,,Clear,60,2013-03-30 14:55:00
11:15 AM,59.5,24.1,26,30.20,10.0,East,5.8,-,N/A,,Clear,90,2013-03-30 15:15:00
11:35 AM,60.6,23.9,25,30.19,10.0,ENE,6.9,-,N/A,,Clear,70,2013-03-30 15:35:00
11:55 AM,61.7,23.4,23,30.19,10.0,East,5.8,-,N/A,,Clear,100,2013-03-30 15:55:00
12:15 PM,61.7,21.7,22,30.17,10.0,ENE,4.6,-,N/A,,Clear,70,2013-03-30 16:15:00
12:35 PM,63.9,24.8,23,30.17,10.0,South,4.6,-,N/A,,Clear,170,2013-03-30 16:35:00
12:55 PM,63.9,23.5,22,30.17,7.0,South,5.8,-,N/A,,Clear,190,2013-03-30 16:55:00
1:15 PM,63.5,23.7,22,30.15,10.0,SW,5.8,-,N/A,,Clear,230,2013-03-30 17:15:00
1:35 PM,64.0,23.9,22,30.14,10.0,North,3.5,-,N/A,,Clear,10,2013-03-30 17:35:00
1:55 PM,64.2,22.6,20,30.14,10.0,ESE,4.6,-,N/A,,Clear,110,2013-03-30 17:55:00
2:15 PM,65.5,23.0,20,30.12,10.0,ESE,3.5,-,N/A,,Clear,110,2013-03-30 18:15:00
2:35 PM,66.7,23.4,19,30.12,10.0,ENE,5.8,-,N/A,,Clear,60,2013-03-30 18:35:00
2:55 PM,66.2,21.6,18,30.11,10.0,WNW,4.6,-,N/A,,Clear,300,2013-03-30 18:55:00
3:15 PM,65.7,21.7,19,30.11,10.0,West,8.1,-,N/A,,Clear,260,2013-03-30 19:15:00
3:35 PM,66.2,21.7,18,30.10,10.0,West,5.8,-,N/A,,Clear,260,2013-03-30 19:35:00
3:55 PM,66.0,19.8,17,30.09,10.0,SSE,5.8,-,N/A,,Clear,160,2013-03-30 19:55:00
4:15 PM,66.4,20.1,17,30.08,10.0,ESE,4.6,-,N/A,,Clear,120,2013-03-30 20:15:00
4:35 PM,66.2,21.6,18,30.08,10.0,SSW,8.1,-,N/A,,Clear,200,2013-03-30 20:35:00
4:55 PM,65.1,19.9,18,30.08,10.0,SSE,5.8,-,N/A,,Clear,150,2013-03-30 20:55:00
5:15 PM,64.8,19.2,17,30.07,10.0,South,3.5,-,N/A,,Clear,170,2013-03-30 21:15:00
5:35 PM,63.3,18.7,18,30.07,10.0,Calm,Calm,-,N/A,,Clear,0,2013-03-30 21:35:00
5:55 PM,63.5,20.1,19,30.07,10.0,Calm,Calm,-,N/A,,Clear,0,2013-03-30 21:55:00
6:15 PM,61.9,19.8,20,30.07,10.0,SSW,3.5,-,N/A,,Clear,200,2013-03-30 22:15:00
6:35 PM,60.4,20.5,21,30.08,10.0,South,3.5,-,N/A,,Clear,190,2013-03-30 22:35:00
6:55 PM,59.9,21.0,22,30.07,10.0,Calm,Calm,-,N/A,,Clear,0,2013-03-30 22:55:00
7:15 PM,58.3,19.0,22,30.08,10.0,Calm,Calm,-,N/A,,Clear,0,2013-03-30 23:15:00
7:35 PM,56.7,16.0,20,30.08,10.0,Calm,Calm,-,N/A,,Clear,0,2013-03-30 23:35:00
7:55 PM,54.5,17.2,23,30.07,10.0,Calm,Calm,-,N/A,,Clear,0,2013-03-30 23:55:00
8:15 PM,52.2,21.7,30,30.07,10.0,Calm,Calm,-,N/A,,Clear,0,2013-03-31 00:15:00
8:35 PM,50.2,11.3,21,30.08,10.0,Calm,Calm,-,N/A,,Clear,0,2013-03-31 00:35:00
8:55 PM,50.0,10.4,20,30.08,10.0,Calm,Calm,-,N/A,,Clear,0,2013-03-31 00:55:00
9:15 PM,49.6,9.5,20,30.07,10.0,Calm,Calm,-,N/A,,Clear,0,2013-03-31 01:15:00
9:35 PM,50.2,10.4,20,30.07,10.0,Calm,Calm,-,N/A,,Clear,0,2013-03-31 01:35:00
9:55 PM,50.9,14.7,24,30.07,10.0,Calm,Calm,-,N/A,,Clear,0,2013-03-31 01:55:00
10:15 PM,51.4,18.1,27,30.08,10.0,Calm,Calm,-,N/A,,Clear,0,2013-03-31 02:15:00
10:35 PM,51.3,19.4,29,30.08,10.0,Calm,Calm,-,N/A,,Clear,0,2013-03-31 02:35:00
10:55 PM,51.3,16.5,25,30.07,10.0,Calm,Calm,-,N/A,,Clear,0,2013-03-31 02:55:00
11:15 PM,51.1,15.3,24,30.07,10.0,Calm,Calm,-,N/A,,Clear,0,2013-03-31 03:15:00
11:35 PM,50.9,18.3,28,30.06,10.0,Calm,Calm,-,N/A,,Clear,0,2013-03-31 03:35:00
11:55 PM,51.1,22.6,33,30.06,10.0,Calm,Calm,-,N/A,,Clear,0,2013-03-31 03:55:00